iso_date,epoch_date,Year,Hour,Min,DOY,POS_DOY,Lat,Lon,BP,Ts,Ta,has_bp,has_ts,has_ta,BuoyID,Buoy_Type,Buoy_Owner,Logistics,Hemisphere
2016-03-25T21:50:24Z,1458942624,2016,21,50,85.91,85.91,66.924,13.4216,997.7,3.1,-999.0,yes,yes,no,300234061619040,BD2GI,AOML,LAGARFOSS,North
2016-03-25T22:49:26Z,1458946166,2016,22,50,85.951,85.951,66.924,13.4218,998.3,3.0,-999.0,yes,yes,no,300234061619040,BD2GI,AOML,LAGARFOSS,North
2016-03-25T23:49:55Z,1458949795,2016,23,50,85.993,85.993,66.924,13.4218,998.8,2.86,-999.0,yes,yes,no,300234061619040,BD2GI,AOML,LAGARFOSS,North
2016-03-26T00:50:24Z,1458953424,2016,0,50,86.035,86.035,66.924,13.4218,998.9,2.85,-999.0,yes,yes,no,300234061619040,BD2GI,AOML,LAGARFOSS,North
2016-03-26T01:49:26Z,1458956966,2016,1,50,86.076,86.076,66.924,13.4216,998.9,2.68,-999.0,yes,yes,no,300234061619040,BD2GI,AOML,LAGARFOSS,North
2016-03-26T02:49:55Z,1458960595,2016,2,50,86.118,86.118,66.924,13.4218,998.5,2.43,-999.0,yes,yes,no,300234061619040,BD2GI,AOML,LAGARFOSS,North
2016-03-26T03:50:24Z,1458964224,2016,3,50,86.16,86.16,66.924,13.4218,998.4,2.47,-999.0,yes,yes,no,300234061619040,BD2GI,AOML,LAGARFOSS,North
2016-03-26T04:49:26Z,1458967766,2016,4,50,86.201,86.201,66.924,13.4218,998.0,2.34,-999.0,yes,yes,no,300234061619040,BD2GI,AOML,LAGARFOSS,North
2016-03-26T05:49:55Z,1458971395,2016,5,50,86.243,86.243,66.924,13.4216,997.4,2.39,-999.0,yes,yes,no,300234061619040,BD2GI,AOML,LAGARFOSS,North
2016-03-26T06:50:24Z,1458975024,2016,6,50,86.285,86.285,66.924,13.4218,996.7,2.79,-999.0,yes,yes,no,300234061619040,BD2GI,AOML,LAGARFOSS,North
2016-03-26T07:49:26Z,1458978566,2016,7,50,86.326,86.326,66.924,13.4218,996.4,2.91,-999.0,yes,yes,no,300234061619040,BD2GI,AOML,LAGARFOSS,North
2016-03-26T08:49:55Z,1458982195,2016,8,50,86.368,86.368,66.924,13.4218,996.1,3.37,-999.0,yes,yes,no,300234061619040,BD2GI,AOML,LAGARFOSS,North
2016-03-26T09:50:24Z,1458985824,2016,9,50,86.41,86.41,66.924,13.4218,995.8,3.21,-999.0,yes,yes,no,300234061619040,BD2GI,AOML,LAGARFOSS,North
2016-03-26T10:49:26Z,1458989366,2016,10,50,86.451,86.451,66.924,13.4218,995.3,3.51,-999.0,yes,yes,no,300234061619040,BD2GI,AOML,LAGARFOSS,North
2016-03-26T11:49:55Z,1458992995,2016,11,50,86.493,86.493,66.924,13.4218,994.9,3.47,-999.0,yes,yes,no,300234061619040,BD2GI,AOML,LAGARFOSS,North
2016-03-26T12:50:24Z,1458996624,2016,12,50,86.535,86.535,66.924,13.4216,994.3,4.11,-999.0,yes,yes,no,300234061619040,BD2GI,AOML,LAGARFOSS,North
2016-03-26T13:49:26Z,1459000166,2016,13,50,86.576,86.576,66.924,13.4218,994.1,4.22,-999.0,yes,yes,no,300234061619040,BD2GI,AOML,LAGARFOSS,North
2016-03-26T14:49:55Z,1459003795,2016,14,50,86.618,86.618,66.924,13.4218,993.5,4.17,-999.0,yes,yes,no,300234061619040,BD2GI,AOML,LAGARFOSS,North
2016-03-26T15:50:24Z,1459007424,2016,15,50,86.66,86.66,66.924,13.4218,993.0,4.19,-999.0,yes,yes,no,300234061619040,BD2GI,AOML,LAGARFOSS,North
2016-03-26T16:49:26Z,1459010966,2016,16,50,86.701,86.701,66.924,13.4218,992.5,3.89,-999.0,yes,yes,no,300234061619040,BD2GI,AOML,LAGARFOSS,North
2016-03-26T17:49:55Z,1459014595,2016,17,50,86.743,86.743,66.924,13.4218,991.7,3.99,-999.0,yes,yes,no,300234061619040,BD2GI,AOML,LAGARFOSS,North
2016-03-26T18:50:24Z,1459018224,2016,18,50,86.785,86.785,66.924,13.4218,991.6,4.1,-999.0,yes,yes,no,300234061619040,BD2GI,AOML,LAGARFOSS,North
2016-03-26T19:49:26Z,1459021766,2016,19,50,86.826,86.826,66.924,13.4218,991.6,4.2,-999.0,yes,yes,no,300234061619040,BD2GI,AOML,LAGARFOSS,North
2016-03-26T20:49:55Z,1459025395,2016,20,50,86.868,86.868,66.9238,13.4216,991.7,4.14,-999.0,yes,yes,no,300234061619040,BD2GI,AOML,LAGARFOSS,North
2016-03-26T21:50:24Z,1459029024,2016,21,50,86.91,86.91,66.924,13.4216,991.5,4.06,-999.0,yes,yes,no,300234061619040,BD2GI,AOML,LAGARFOSS,North
2016-03-26T22:49:26Z,1459032566,2016,22,50,86.951,86.951,66.924,13.4216,991.1,3.99,-999.0,yes,yes,no,300234061619040,BD2GI,AOML,LAGARFOSS,North
2016-03-26T23:49:55Z,1459036195,2016,23,50,86.993,86.993,66.924,13.4216,990.8,3.84,-999.0,yes,yes,no,300234061619040,BD2GI,AOML,LAGARFOSS,North
2016-03-27T00:50:24Z,1459039824,2016,0,50,87.035,87.035,66.924,13.4216,990.3,3.73,-999.0,yes,yes,no,300234061619040,BD2GI,AOML,LAGARFOSS,North
2016-03-27T01:49:26Z,1459043366,2016,1,50,87.076,87.076,66.924,13.4218,990.1,3.76,-999.0,yes,yes,no,300234061619040,BD2GI,AOML,LAGARFOSS,North
2016-03-27T02:49:55Z,1459046995,2016,2,50,87.118,87.118,66.924,13.4216,990.0,3.86,-999.0,yes,yes,no,300234061619040,BD2GI,AOML,LAGARFOSS,North
2016-03-27T03:50:24Z,1459050624,2016,3,50,87.16,87.16,66.924,13.4218,989.4,3.71,-999.0,yes,yes,no,300234061619040,BD2GI,AOML,LAGARFOSS,North
2016-03-27T04:49:26Z,1459054166,2016,4,50,87.201,87.201,66.924,13.4218,988.9,3.72,-999.0,yes,yes,no,300234061619040,BD2GI,AOML,LAGARFOSS,North
2016-03-27T05:49:55Z,1459057795,2016,5,50,87.243,87.243,66.924,13.4216,987.9,3.96,-999.0,yes,yes,no,300234061619040,BD2GI,AOML,LAGARFOSS,North
2016-03-27T06:50:24Z,1459061424,2016,6,50,87.285,87.285,66.924,13.4216,987.1,4.64,-999.0,yes,yes,no,300234061619040,BD2GI,AOML,LAGARFOSS,North
2016-03-27T07:49:26Z,1459064966,2016,7,50,87.326,87.326,66.924,13.4216,986.1,6.45,-999.0,yes,yes,no,300234061619040,BD2GI,AOML,LAGARFOSS,North
2016-03-27T08:49:55Z,1459068595,2016,8,50,87.368,87.368,66.924,13.4216,984.9,7.33,-999.0,yes,yes,no,300234061619040,BD2GI,AOML,LAGARFOSS,North
2016-03-27T09:50:24Z,1459072224,2016,9,50,87.41,87.41,66.924,13.4216,984.6,6.94,-999.0,yes,yes,no,300234061619040,BD2GI,AOML,LAGARFOSS,North
2016-03-27T10:49:26Z,1459075766,2016,10,50,87.451,87.451,66.924,13.4218,984.9,6.66,-999.0,yes,yes,no,300234061619040,BD2GI,AOML,LAGARFOSS,North
2016-03-27T11:49:55Z,1459079395,2016,11,50,87.493,87.493,66.924,13.4218,984.7,6.61,-999.0,yes,yes,no,300234061619040,BD2GI,AOML,LAGARFOSS,North
2016-03-27T12:50:24Z,1459083024,2016,12,50,87.535,87.535,66.924,13.4218,985.1,6.41,-999.0,yes,yes,no,300234061619040,BD2GI,AOML,LAGARFOSS,North
2016-03-27T13:49:26Z,1459086566,2016,13,50,87.576,87.576,66.924,13.4218,986.5,5.89,-999.0,yes,yes,no,300234061619040,BD2GI,AOML,LAGARFOSS,North
2016-03-27T14:49:55Z,1459090195,2016,14,50,87.618,87.618,66.924,13.4216,986.5,5.73,-999.0,yes,yes,no,300234061619040,BD2GI,AOML,LAGARFOSS,North
2016-03-27T15:50:24Z,1459093824,2016,15,50,87.66,87.66,66.924,13.4218,986.5,5.47,-999.0,yes,yes,no,300234061619040,BD2GI,AOML,LAGARFOSS,North
2016-03-27T16:49:26Z,1459097366,2016,16,50,87.701,87.701,66.924,13.4218,986.2,5.05,-999.0,yes,yes,no,300234061619040,BD2GI,AOML,LAGARFOSS,North
2016-03-27T17:49:55Z,1459100995,2016,17,50,87.743,87.743,66.924,13.4216,985.6,4.72,-999.0,yes,yes,no,300234061619040,BD2GI,AOML,LAGARFOSS,North
2016-03-27T18:50:24Z,1459104624,2016,18,50,87.785,87.785,66.924,13.4218,985.4,4.47,-999.0,yes,yes,no,300234061619040,BD2GI,AOML,LAGARFOSS,North
2016-03-27T19:49:26Z,1459108166,2016,19,50,87.826,87.826,66.924,13.4218,984.4,4.47,-999.0,yes,yes,no,300234061619040,BD2GI,AOML,LAGARFOSS,North
2016-03-27T20:49:55Z,1459111795,2016,20,50,87.868,87.868,66.924,13.4218,984.3,4.2,-999.0,yes,yes,no,300234061619040,BD2GI,AOML,LAGARFOSS,North
2016-03-27T21:50:24Z,1459115424,2016,21,50,87.91,87.91,66.924,13.4218,984.5,4.19,-999.0,yes,yes,no,300234061619040,BD2GI,AOML,LAGARFOSS,North
2016-03-27T22:49:26Z,1459118966,2016,22,50,87.951,87.951,66.924,13.4218,984.4,4.21,-999.0,yes,yes,no,300234061619040,BD2GI,AOML,LAGARFOSS,North
2016-03-27T23:49:55Z,1459122595,2016,23,50,87.993,87.993,66.924,13.4218,985.1,4.12,-999.0,yes,yes,no,300234061619040,BD2GI,AOML,LAGARFOSS,North
2016-03-28T00:50:24Z,1459126224,2016,0,50,88.035,88.035,66.924,13.4218,986.5,4.21,-999.0,yes,yes,no,300234061619040,BD2GI,AOML,LAGARFOSS,North
2016-03-28T01:49:26Z,1459129766,2016,1,50,88.076,88.076,66.924,13.4218,986.7,4.3,-999.0,yes,yes,no,300234061619040,BD2GI,AOML,LAGARFOSS,North
2016-03-28T02:49:55Z,1459133395,2016,2,50,88.118,88.118,66.924,13.4216,987.6,4.06,-999.0,yes,yes,no,300234061619040,BD2GI,AOML,LAGARFOSS,North
2016-03-28T03:50:24Z,1459137024,2016,3,50,88.16,88.16,66.924,13.4218,987.7,3.8,-999.0,yes,yes,no,300234061619040,BD2GI,AOML,LAGARFOSS,North
2016-03-28T04:49:26Z,1459140566,2016,4,50,88.201,88.201,66.924,13.4218,988.1,3.85,-999.0,yes,yes,no,300234061619040,BD2GI,AOML,LAGARFOSS,North
2016-03-28T05:49:55Z,1459144195,2016,5,50,88.243,88.243,66.924,13.4218,988.8,4.11,-999.0,yes,yes,no,300234061619040,BD2GI,AOML,LAGARFOSS,North
2016-03-28T06:50:24Z,1459147824,2016,6,50,88.285,88.285,66.924,13.4216,989.3,4.3,-999.0,yes,yes,no,300234061619040,BD2GI,AOML,LAGARFOSS,North
2016-03-28T07:49:26Z,1459151366,2016,7,50,88.326,88.326,66.924,13.4218,990.1,4.47,-999.0,yes,yes,no,300234061619040,BD2GI,AOML,LAGARFOSS,North
2016-03-28T08:49:55Z,1459154995,2016,8,50,88.368,88.368,66.924,13.4218,990.7,4.9,-999.0,yes,yes,no,300234061619040,BD2GI,AOML,LAGARFOSS,North
2016-03-28T09:50:24Z,1459158624,2016,9,50,88.41,88.41,66.924,13.4218,991.2,5.3,-999.0,yes,yes,no,300234061619040,BD2GI,AOML,LAGARFOSS,North
2016-03-28T10:49:26Z,1459162166,2016,10,50,88.451,88.451,66.924,13.4218,992.3,5.28,-999.0,yes,yes,no,300234061619040,BD2GI,AOML,LAGARFOSS,North
2016-03-28T11:49:55Z,1459165795,2016,11,50,88.493,88.493,66.924,13.4218,992.9,5.69,-999.0,yes,yes,no,300234061619040,BD2GI,AOML,LAGARFOSS,North
2016-03-28T12:50:24Z,1459169424,2016,12,50,88.535,88.535,66.924,13.4216,993.3,5.72,-999.0,yes,yes,no,300234061619040,BD2GI,AOML,LAGARFOSS,North
2016-03-28T13:49:26Z,1459172966,2016,13,50,88.576,88.576,66.924,13.4218,993.7,5.53,-999.0,yes,yes,no,300234061619040,BD2GI,AOML,LAGARFOSS,North
2016-03-28T14:49:55Z,1459176595,2016,14,50,88.618,88.618,66.924,13.4218,993.9,5.39,-999.0,yes,yes,no,300234061619040,BD2GI,AOML,LAGARFOSS,North
2016-03-28T15:50:24Z,1459180224,2016,15,50,88.66,88.66,66.924,13.4216,993.7,5.09,-999.0,yes,yes,no,300234061619040,BD2GI,AOML,LAGARFOSS,North
2016-03-28T16:49:26Z,1459183766,2016,16,50,88.701,88.701,66.924,13.4218,993.8,4.99,-999.0,yes,yes,no,300234061619040,BD2GI,AOML,LAGARFOSS,North
2016-03-28T17:49:55Z,1459187395,2016,17,50,88.743,88.743,66.924,13.4218,993.8,4.7,-999.0,yes,yes,no,300234061619040,BD2GI,AOML,LAGARFOSS,North
2016-03-28T18:50:24Z,1459191024,2016,18,50,88.785,88.785,66.924,13.4218,993.8,4.5,-999.0,yes,yes,no,300234061619040,BD2GI,AOML,LAGARFOSS,North
2016-03-28T19:49:26Z,1459194566,2016,19,50,88.826,88.826,66.924,13.4218,993.8,4.87,-999.0,yes,yes,no,300234061619040,BD2GI,AOML,LAGARFOSS,North
2016-03-28T20:49:55Z,1459198195,2016,20,50,88.868,88.868,66.924,13.4218,993.6,5.12,-999.0,yes,yes,no,300234061619040,BD2GI,AOML,LAGARFOSS,North
2016-03-28T21:50:24Z,1459201824,2016,21,50,88.91,88.91,66.924,13.4218,993.1,5.25,-999.0,yes,yes,no,300234061619040,BD2GI,AOML,LAGARFOSS,North
2016-03-28T22:49:26Z,1459205366,2016,22,50,88.951,88.951,66.924,13.4218,992.6,5.69,-999.0,yes,yes,no,300234061619040,BD2GI,AOML,LAGARFOSS,North
2016-03-28T23:49:55Z,1459208995,2016,23,50,88.993,88.993,66.924,13.4218,992.2,6.0,-999.0,yes,yes,no,300234061619040,BD2GI,AOML,LAGARFOSS,North
2016-03-29T00:50:24Z,1459212624,2016,0,50,89.035,89.035,66.924,13.4218,991.8,6.25,-999.0,yes,yes,no,300234061619040,BD2GI,AOML,LAGARFOSS,North
2016-03-29T01:49:26Z,1459216166,2016,1,50,89.076,89.076,66.924,13.4218,990.9,6.66,-999.0,yes,yes,no,300234061619040,BD2GI,AOML,LAGARFOSS,North
2016-03-29T02:49:55Z,1459219795,2016,2,50,89.118,89.118,66.924,13.4218,990.3,6.62,-999.0,yes,yes,no,300234061619040,BD2GI,AOML,LAGARFOSS,North
2016-03-29T03:50:24Z,1459223424,2016,3,50,89.16,89.16,66.924,13.4218,989.9,6.58,-999.0,yes,yes,no,300234061619040,BD2GI,AOML,LAGARFOSS,North
2016-03-29T04:49:26Z,1459226966,2016,4,50,89.201,89.201,66.924,13.4218,989.3,6.51,-999.0,yes,yes,no,300234061619040,BD2GI,AOML,LAGARFOSS,North
2016-03-29T05:49:55Z,1459230595,2016,5,50,89.243,89.243,66.924,13.4216,988.6,6.51,-999.0,yes,yes,no,300234061619040,BD2GI,AOML,LAGARFOSS,North
2016-03-29T06:50:24Z,1459234224,2016,6,50,89.285,89.285,66.924,13.4218,988.2,6.2,-999.0,yes,yes,no,300234061619040,BD2GI,AOML,LAGARFOSS,North
2016-03-29T07:49:26Z,1459237766,2016,7,50,89.326,89.326,66.924,13.4218,987.7,6.85,-999.0,yes,yes,no,300234061619040,BD2GI,AOML,LAGARFOSS,North
2016-03-29T08:49:55Z,1459241395,2016,8,50,89.368,89.368,66.924,13.4218,987.5,8.33,-999.0,yes,yes,no,300234061619040,BD2GI,AOML,LAGARFOSS,North
2016-03-29T09:50:24Z,1459245024,2016,9,50,89.41,89.41,66.924,13.4218,987.4,8.62,-999.0,yes,yes,no,300234061619040,BD2GI,AOML,LAGARFOSS,North
2016-03-29T10:49:26Z,1459248566,2016,10,50,89.451,89.451,66.924,13.4218,987.3,10.34,-999.0,yes,yes,no,300234061619040,BD2GI,AOML,LAGARFOSS,North
2016-03-29T11:49:55Z,1459252195,2016,11,50,89.493,89.493,66.924,13.4218,986.9,9.87,-999.0,yes,yes,no,300234061619040,BD2GI,AOML,LAGARFOSS,North
2016-03-29T12:50:24Z,1459255824,2016,12,50,89.535,89.535,66.924,13.4218,986.3,9.53,-999.0,yes,yes,no,300234061619040,BD2GI,AOML,LAGARFOSS,North
2016-03-29T13:49:26Z,1459259366,2016,13,50,89.576,89.576,66.924,13.4218,986.0,9.44,-999.0,yes,yes,no,300234061619040,BD2GI,AOML,LAGARFOSS,North
2016-03-29T14:49:55Z,1459262995,2016,14,50,89.618,89.618,66.924,13.4218,986.3,8.99,-999.0,yes,yes,no,300234061619040,BD2GI,AOML,LAGARFOSS,North
2016-03-29T15:50:24Z,1459266624,2016,15,50,89.66,89.66,66.924,13.4216,986.6,8.27,-999.0,yes,yes,no,300234061619040,BD2GI,AOML,LAGARFOSS,North
2016-03-29T16:49:26Z,1459270166,2016,16,50,89.701,89.701,66.924,13.4218,986.6,7.83,-999.0,yes,yes,no,300234061619040,BD2GI,AOML,LAGARFOSS,North
2016-03-29T17:49:55Z,1459273795,2016,17,50,89.743,89.743,66.924,13.4216,986.7,7.4,-999.0,yes,yes,no,300234061619040,BD2GI,AOML,LAGARFOSS,North
2016-03-29T18:50:24Z,1459277424,2016,18,50,89.785,89.785,66.924,13.4218,987.0,7.19,-999.0,yes,yes,no,300234061619040,BD2GI,AOML,LAGARFOSS,North
2016-03-29T19:49:26Z,1459280966,2016,19,50,89.826,89.826,66.924,13.4218,987.3,7.02,-999.0,yes,yes,no,300234061619040,BD2GI,AOML,LAGARFOSS,North
2016-03-29T20:49:55Z,1459284595,2016,20,50,89.868,89.868,66.924,13.4216,987.7,6.71,-999.0,yes,yes,no,300234061619040,BD2GI,AOML,LAGARFOSS,North
2016-03-29T21:50:24Z,1459288224,2016,21,50,89.91,89.91,66.924,13.4218,987.9,6.49,-999.0,yes,yes,no,300234061619040,BD2GI,AOML,LAGARFOSS,North
2016-03-29T22:49:26Z,1459291766,2016,22,50,89.951,89.951,66.924,13.4218,988.2,6.25,-999.0,yes,yes,no,300234061619040,BD2GI,AOML,LAGARFOSS,North
2016-03-29T23:49:55Z,1459295395,2016,23,50,89.993,89.993,66.924,13.4218,989.1,5.94,-999.0,yes,yes,no,300234061619040,BD2GI,AOML,LAGARFOSS,North
2016-03-30T00:50:24Z,1459299024,2016,0,50,90.035,90.035,66.924,13.4218,990.4,5.39,-999.0,yes,yes,no,300234061619040,BD2GI,AOML,LAGARFOSS,North
2016-03-30T01:49:26Z,1459302566,2016,1,50,90.076,90.076,66.924,13.4218,991.1,4.62,-999.0,yes,yes,no,300234061619040,BD2GI,AOML,LAGARFOSS,North
2016-03-30T02:49:55Z,1459306195,2016,2,50,90.118,90.118,66.924,13.4216,991.2,3.86,-999.0,yes,yes,no,300234061619040,BD2GI,AOML,LAGARFOSS,North
2016-03-30T03:50:24Z,1459309824,2016,3,50,90.16,90.16,66.924,13.4218,992.2,3.6,-999.0,yes,yes,no,300234061619040,BD2GI,AOML,LAGARFOSS,North
2016-03-30T04:49:26Z,1459313366,2016,4,50,90.201,90.201,66.924,13.4218,992.0,3.59,-999.0,yes,yes,no,300234061619040,BD2GI,AOML,LAGARFOSS,North
2016-03-30T05:49:55Z,1459316995,2016,5,50,90.243,90.243,66.924,13.4218,992.3,3.49,-999.0,yes,yes,no,300234061619040,BD2GI,AOML,LAGARFOSS,North
2016-03-30T06:50:24Z,1459320624,2016,6,50,90.285,90.285,66.924,13.4218,992.2,4.4,-999.0,yes,yes,no,300234061619040,BD2GI,AOML,LAGARFOSS,North
2016-03-30T07:49:26Z,1459324166,2016,7,50,90.326,90.326,66.924,13.4218,993.4,4.0,-999.0,yes,yes,no,300234061619040,BD2GI,AOML,LAGARFOSS,North
2016-03-30T08:49:55Z,1459327795,2016,8,50,90.368,90.368,66.924,13.4218,994.3,4.57,-999.0,yes,yes,no,300234061619040,BD2GI,AOML,LAGARFOSS,North
2016-03-30T09:50:24Z,1459331424,2016,9,50,90.41,90.41,66.924,13.4218,995.3,4.38,-999.0,yes,yes,no,300234061619040,BD2GI,AOML,LAGARFOSS,North
2016-03-30T10:49:26Z,1459334966,2016,10,50,90.451,90.451,66.924,13.4218,996.1,4.83,-999.0,yes,yes,no,300234061619040,BD2GI,AOML,LAGARFOSS,North
2016-03-30T11:49:55Z,1459338595,2016,11,50,90.493,90.493,66.924,13.4218,996.9,5.1,-999.0,yes,yes,no,300234061619040,BD2GI,AOML,LAGARFOSS,North
2016-03-30T12:50:24Z,1459342224,2016,12,50,90.535,90.535,66.924,13.4218,997.4,4.62,-999.0,yes,yes,no,300234061619040,BD2GI,AOML,LAGARFOSS,North
2016-03-30T13:49:26Z,1459345766,2016,13,50,90.576,90.576,66.924,13.4218,997.9,4.91,-999.0,yes,yes,no,300234061619040,BD2GI,AOML,LAGARFOSS,North
2016-03-30T14:49:55Z,1459349395,2016,14,50,90.618,90.618,66.924,13.4216,998.4,4.68,-999.0,yes,yes,no,300234061619040,BD2GI,AOML,LAGARFOSS,North
2016-03-30T15:50:24Z,1459353024,2016,15,50,90.66,90.66,66.924,13.4218,998.7,4.36,-999.0,yes,yes,no,300234061619040,BD2GI,AOML,LAGARFOSS,North
2016-03-30T16:49:26Z,1459356566,2016,16,50,90.701,90.701,66.924,13.4222,999.1,4.23,-999.0,yes,yes,no,300234061619040,BD2GI,AOML,LAGARFOSS,North
2016-03-30T17:49:55Z,1459360195,2016,17,50,90.743,90.743,66.924,13.4218,999.7,3.91,-999.0,yes,yes,no,300234061619040,BD2GI,AOML,LAGARFOSS,North
2016-03-30T18:50:24Z,1459363824,2016,18,50,90.785,90.785,66.924,13.4218,1000.2,3.33,-999.0,yes,yes,no,300234061619040,BD2GI,AOML,LAGARFOSS,North
2016-03-30T19:49:26Z,1459367366,2016,19,50,90.826,90.826,66.924,13.4216,1000.6,3.05,-999.0,yes,yes,no,300234061619040,BD2GI,AOML,LAGARFOSS,North
2016-03-30T20:49:55Z,1459370995,2016,20,50,90.868,90.868,66.924,13.4216,1001.2,2.63,-999.0,yes,yes,no,300234061619040,BD2GI,AOML,LAGARFOSS,North
2016-03-30T21:50:24Z,1459374624,2016,21,50,90.91,90.91,66.924,13.4216,1001.6,2.59,-999.0,yes,yes,no,300234061619040,BD2GI,AOML,LAGARFOSS,North
2016-03-30T22:49:26Z,1459378166,2016,22,50,90.951,90.951,66.924,13.4218,1001.7,2.55,-999.0,yes,yes,no,300234061619040,BD2GI,AOML,LAGARFOSS,North
2016-03-30T23:49:55Z,1459381795,2016,23,50,90.993,90.993,66.924,13.4218,1001.9,2.32,-999.0,yes,yes,no,300234061619040,BD2GI,AOML,LAGARFOSS,North
2016-03-31T00:50:24Z,1459385424,2016,0,50,91.035,91.035,66.924,13.4218,1001.9,2.0,-999.0,yes,yes,no,300234061619040,BD2GI,AOML,LAGARFOSS,North
2016-03-31T01:49:26Z,1459388966,2016,1,50,91.076,91.076,66.924,13.4216,1002.1,1.95,-999.0,yes,yes,no,300234061619040,BD2GI,AOML,LAGARFOSS,North
2016-03-31T02:49:55Z,1459392595,2016,2,50,91.118,91.118,66.924,13.4216,1002.3,2.0,-999.0,yes,yes,no,300234061619040,BD2GI,AOML,LAGARFOSS,North
2016-03-31T03:50:24Z,1459396224,2016,3,50,91.16,91.16,66.924,13.4218,1002.5,1.69,-999.0,yes,yes,no,300234061619040,BD2GI,AOML,LAGARFOSS,North
2016-03-31T04:49:26Z,1459399766,2016,4,50,91.201,91.201,66.924,13.4218,1002.5,1.79,-999.0,yes,yes,no,300234061619040,BD2GI,AOML,LAGARFOSS,North
2016-03-31T05:49:55Z,1459403395,2016,5,50,91.243,91.243,66.924,13.4218,1002.6,1.79,-999.0,yes,yes,no,300234061619040,BD2GI,AOML,LAGARFOSS,North
2016-03-31T06:50:24Z,1459407024,2016,6,50,91.285,91.285,66.924,13.4218,1002.7,2.99,-999.0,yes,yes,no,300234061619040,BD2GI,AOML,LAGARFOSS,North
2016-03-31T07:49:26Z,1459410566,2016,7,50,91.326,91.326,66.924,13.4218,1003.1,4.77,-999.0,yes,yes,no,300234061619040,BD2GI,AOML,LAGARFOSS,North
2016-03-31T08:49:55Z,1459414195,2016,8,50,91.368,91.368,66.924,13.4218,1003.3,6.17,-999.0,yes,yes,no,300234061619040,BD2GI,AOML,LAGARFOSS,North
2016-03-31T09:50:24Z,1459417824,2016,9,50,91.41,91.41,66.924,13.4218,1003.4,7.23,-999.0,yes,yes,no,300234061619040,BD2GI,AOML,LAGARFOSS,North
2016-03-31T10:49:26Z,1459421366,2016,10,50,91.451,91.451,66.924,13.4218,1003.7,8.46,-999.0,yes,yes,no,300234061619040,BD2GI,AOML,LAGARFOSS,North
2016-03-31T11:49:55Z,1459424995,2016,11,50,91.493,91.493,66.924,13.4216,1003.8,8.8,-999.0,yes,yes,no,300234061619040,BD2GI,AOML,LAGARFOSS,North
2016-03-31T12:50:24Z,1459428624,2016,12,50,91.535,91.535,66.924,13.4216,1004.1,7.41,-999.0,yes,yes,no,300234061619040,BD2GI,AOML,LAGARFOSS,North
2016-03-31T13:49:26Z,1459432166,2016,13,50,91.576,91.576,66.924,13.4218,1004.3,6.37,-999.0,yes,yes,no,300234061619040,BD2GI,AOML,LAGARFOSS,North
2016-03-31T14:49:55Z,1459435795,2016,14,50,91.618,91.618,66.924,13.4218,1004.5,5.46,-999.0,yes,yes,no,300234061619040,BD2GI,AOML,LAGARFOSS,North
2016-03-31T15:50:24Z,1459439424,2016,15,50,91.66,91.66,66.924,13.4218,1004.7,4.78,-999.0,yes,yes,no,300234061619040,BD2GI,AOML,LAGARFOSS,North
2016-03-31T16:49:26Z,1459442966,2016,16,50,91.701,91.701,66.924,13.4222,1004.9,4.16,-999.0,yes,yes,no,300234061619040,BD2GI,AOML,LAGARFOSS,North
2016-03-31T17:49:55Z,1459446595,2016,17,50,91.743,91.743,66.924,13.4218,1005.1,3.53,-999.0,yes,yes,no,300234061619040,BD2GI,AOML,LAGARFOSS,North
2016-03-31T18:50:24Z,1459450224,2016,18,50,91.785,91.785,66.924,13.4218,1005.4,3.19,-999.0,yes,yes,no,300234061619040,BD2GI,AOML,LAGARFOSS,North
2016-03-31T19:49:26Z,1459453766,2016,19,50,91.826,91.826,66.924,13.4218,1005.5,2.7,-999.0,yes,yes,no,300234061619040,BD2GI,AOML,LAGARFOSS,North
2016-03-31T20:49:55Z,1459457395,2016,20,50,91.868,91.868,66.924,13.4218,1005.8,2.41,-999.0,yes,yes,no,300234061619040,BD2GI,AOML,LAGARFOSS,North
2016-03-31T21:50:24Z,1459461024,2016,21,50,91.91,91.91,66.924,13.4218,1006.1,2.47,-999.0,yes,yes,no,300234061619040,BD2GI,AOML,LAGARFOSS,North
2016-03-31T22:49:26Z,1459464566,2016,22,50,91.951,91.951,66.924,13.4218,1006.4,2.22,-999.0,yes,yes,no,300234061619040,BD2GI,AOML,LAGARFOSS,North
2016-03-31T23:49:55Z,1459468195,2016,23,50,91.993,91.993,66.924,13.4218,1006.5,1.97,-999.0,yes,yes,no,300234061619040,BD2GI,AOML,LAGARFOSS,North
2016-04-01T00:50:24Z,1459471824,2016,0,50,92.035,92.035,66.924,13.4218,1006.8,1.79,-999.0,yes,yes,no,300234061619040,BD2GI,AOML,LAGARFOSS,North
2016-04-01T01:49:26Z,1459475366,2016,1,50,92.076,92.076,66.924,13.4218,1006.8,1.97,-999.0,yes,yes,no,300234061619040,BD2GI,AOML,LAGARFOSS,North
2016-04-01T02:49:55Z,1459478995,2016,2,50,92.118,92.118,66.924,13.4216,1007.3,1.98,-999.0,yes,yes,no,300234061619040,BD2GI,AOML,LAGARFOSS,North
2016-04-01T03:50:24Z,1459482624,2016,3,50,92.16,92.16,66.924,13.4218,1007.6,2.06,-999.0,yes,yes,no,300234061619040,BD2GI,AOML,LAGARFOSS,North
2016-04-01T04:49:26Z,1459486166,2016,4,50,92.201,92.201,66.924,13.4216,1008.2,1.81,-999.0,yes,yes,no,300234061619040,BD2GI,AOML,LAGARFOSS,North
2016-04-01T05:49:55Z,1459489795,2016,5,50,92.243,92.243,66.924,13.4216,1008.7,1.23,-999.0,yes,yes,no,300234061619040,BD2GI,AOML,LAGARFOSS,North
2016-04-01T06:50:24Z,1459493424,2016,6,50,92.285,92.285,66.924,13.4218,1009.2,0.86,-999.0,yes,yes,no,300234061619040,BD2GI,AOML,LAGARFOSS,North
2016-04-01T07:49:26Z,1459496966,2016,7,50,92.326,92.326,66.924,13.4218,1009.5,0.96,-999.0,yes,yes,no,300234061619040,BD2GI,AOML,LAGARFOSS,North
2016-04-01T08:49:55Z,1459500595,2016,8,50,92.368,92.368,66.924,13.4216,1010.1,2.04,-999.0,yes,yes,no,300234061619040,BD2GI,AOML,LAGARFOSS,North
2016-04-01T09:50:24Z,1459504224,2016,9,50,92.41,92.41,66.924,13.4216,1010.5,1.79,-999.0,yes,yes,no,300234061619040,BD2GI,AOML,LAGARFOSS,North
2016-04-01T10:49:26Z,1459507766,2016,10,50,92.451,92.451,66.924,13.4218,1010.9,2.44,-999.0,yes,yes,no,300234061619040,BD2GI,AOML,LAGARFOSS,North
2016-04-01T11:49:55Z,1459511395,2016,11,50,92.493,92.493,66.924,13.4218,1011.1,3.11,-999.0,yes,yes,no,300234061619040,BD2GI,AOML,LAGARFOSS,North
2016-04-01T12:50:24Z,1459515024,2016,12,50,92.535,92.535,66.924,13.4218,1011.5,3.52,-999.0,yes,yes,no,300234061619040,BD2GI,AOML,LAGARFOSS,North
2016-04-01T13:49:26Z,1459518566,2016,13,50,92.576,92.576,66.924,13.4218,1011.5,3.86,-999.0,yes,yes,no,300234061619040,BD2GI,AOML,LAGARFOSS,North
2016-04-01T14:49:55Z,1459522195,2016,14,50,92.618,92.618,66.924,13.4218,1011.5,4.03,-999.0,yes,yes,no,300234061619040,BD2GI,AOML,LAGARFOSS,North
2016-04-01T15:50:24Z,1459525824,2016,15,50,92.66,92.66,66.924,13.4218,1011.6,3.43,-999.0,yes,yes,no,300234061619040,BD2GI,AOML,LAGARFOSS,North
2016-04-01T16:49:26Z,1459529366,2016,16,50,92.701,92.701,66.924,13.4218,1011.6,3.09,-999.0,yes,yes,no,300234061619040,BD2GI,AOML,LAGARFOSS,North
2016-04-01T17:49:55Z,1459532995,2016,17,50,92.743,92.743,66.924,13.4218,1011.6,2.92,-999.0,yes,yes,no,300234061619040,BD2GI,AOML,LAGARFOSS,North
2016-04-01T18:50:24Z,1459536624,2016,18,50,92.785,92.785,66.924,13.4218,1011.6,2.12,-999.0,yes,yes,no,300234061619040,BD2GI,AOML,LAGARFOSS,North